星链-34906(STARLINK-34906)

导读

STARLINK-34906是美国SpaceX星链星座的一员,于2025年10月7日发射,归属星链低轨互联网星座组网计划。星链旨在依托大量低轨卫星,为全球范围提供覆盖的高速互联网接入服务,该卫星入轨后承担星链星座的部分通信载荷任务,补充星座服务容量与覆盖能力。

基本信息
目录编号:
65896
目录名称:
STARLINK-34906
国际标识:
2025-224Q
轨道中心:
EARTH
卫星名称:
星链-34906
卫星全名:
星链-34906(STARLINK-34906)
卫星状态:
在轨 (已飞行249 天)
发射日期:
2025-10-07 UTC
国别 :
美国 (US)
星等 :
--
轨道信息
数据来源 国际轨道数据
星历时间: 2026-06-13T09:39:23+0800
14小时前
查看轨道信息
半长轴: 6848.843km
偏心率: 0.0001503
轨道倾角: 53.159°
近地点辐角 94.984°
升交点赤经 287.868°
平近点角 265.133°
近地点: 469.676km
远地点: 471.736km
周期: 94.012分钟
每日圈数: 15.317116
详细信息
固有亮度:
5
最大亮度:
2.5
卫星平台:
Starlink V1.0
覆盖范围:
全球
运营商:
太空探索技术公司
运营商所在国:
美国
制造商(研发单位):
太空探索技术公司
制造商所在国:
美国
使用方式:
暂无
卫星简介
Starlink 计划是 SpaceX 推出的全球卫星互联网项目,通过发射低轨道卫星,为全球尤其是偏远地区提供高速、低延迟的互联网服务。自 2019 年起,Starlink 已部署数千颗卫星,旨在缩小全球数字鸿沟,推动互联网普及。该项目还为军事、航空等行业提供通信支持,带来广泛经济效益。
2D轨道图
3D轨道图
轨道高度分析图
轨道倾角分析图
轨道综合分析图
查看轨道综合分析图